Time,TemperatureF,DewpointF,PressureIn,WindDirection,WindDirectionDegrees,WindSpeedMPH,WindSpeedGustMPH,Humidity,HourlyPrecipIn,Conditions,Clouds,dailyrainin,SoftwareType,DateUTC
2013-01-17 00:03:00,61.9,-39.7,30.04,NNE,22,2.2,-999.0,1,-99.99,,,0.00,Acu-Link.com,2013-01-17 08:03:00,
2013-01-17 00:18:00,61.2,-40.1,30.04,North,0,3.2,-999.0,1,-99.99,,,0.00,Acu-Link.com,2013-01-17 08:18:00,
2013-01-17 00:33:00,60.3,-40.7,30.04,SSW,202,0.0,-999.0,1,-99.99,,,0.00,Acu-Link.com,2013-01-17 08:33:00,
2013-01-17 00:48:00,59.9,-40.9,30.04,NE,45,0.0,-999.0,1,-99.99,,,0.00,Acu-Link.com,2013-01-17 08:48:00,
2013-01-17 01:03:00,60.4,-40.6,30.05,West,270,1.7,-999.0,1,-99.99,,,0.00,Acu-Link.com,2013-01-17 09:03:00,
2013-01-17 01:18:00,59.9,-40.9,30.05,SSW,202,0.0,-999.0,1,-99.99,,,0.00,Acu-Link.com,2013-01-17 09:18:00,
2013-01-17 01:33:00,59.5,-41.2,30.05,SSW,202,0.0,-999.0,1,-99.99,,,0.00,Acu-Link.com,2013-01-17 09:33:00,
2013-01-17 01:49:00,60.1,-40.8,30.06,NNE,22,2.2,-999.0,1,-99.99,,,0.00,Acu-Link.com,2013-01-17 09:49:00,
2013-01-17 02:04:00,60.4,-40.6,30.05,NNE,22,5.8,-999.0,1,-99.99,,,0.00,Acu-Link.com,2013-01-17 10:04:00,
2013-01-17 02:19:00,60.6,-40.5,30.05,NE,45,3.2,-999.0,1,-99.99,,,0.00,Acu-Link.com,2013-01-17 10:19:00,
2013-01-17 02:34:00,60.4,-40.6,30.06,NNE,22,2.7,-999.0,1,-99.99,,,0.00,Acu-Link.com,2013-01-17 10:34:00,
2013-01-17 02:49:00,59.0,-41.5,30.05,NNE,22,5.8,-999.0,1,-99.99,,,0.00,Acu-Link.com,2013-01-17 10:49:00,
2013-01-17 03:04:00,58.5,-41.8,30.05,West,270,1.1,-999.0,1,-99.99,,,0.00,Acu-Link.com,2013-01-17 11:04:00,
2013-01-17 03:19:00,58.6,-41.7,30.05,North,0,1.7,-999.0,1,-99.99,,,0.00,Acu-Link.com,2013-01-17 11:19:00,
2013-01-17 03:34:00,58.5,-41.8,30.05,NNE,22,0.0,-999.0,1,-99.99,,,0.00,Acu-Link.com,2013-01-17 11:34:00,
2013-01-17 03:49:00,58.3,-41.9,30.05,ENE,67,3.2,-999.0,1,-99.99,,,0.00,Acu-Link.com,2013-01-17 11:49:00,
2013-01-17 04:05:00,58.3,-41.9,30.06,NNE,22,0.0,-999.0,1,-99.99,,,0.00,Acu-Link.com,2013-01-17 12:05:00,
2013-01-17 04:20:00,58.3,-41.9,30.05,North,0,0.0,-999.0,1,-99.99,,,0.00,Acu-Link.com,2013-01-17 12:20:00,
2013-01-17 04:35:00,60.1,-40.8,30.04,East,90,7.3,-999.0,1,-99.99,,,0.00,Acu-Link.com,2013-01-17 12:35:00,
2013-01-17 04:50:00,60.4,-40.6,30.04,NNW,337,4.2,-999.0,1,-99.99,,,0.00,Acu-Link.com,2013-01-17 12:50:00,
2013-01-17 05:05:00,59.9,-40.9,30.04,NE,45,2.7,-999.0,1,-99.99,,,0.00,Acu-Link.com,2013-01-17 13:05:00,
2013-01-17 05:20:00,59.2,-41.3,30.02,SSW,202,9.9,-999.0,1,-99.99,,,0.00,Acu-Link.com,2013-01-17 13:20:00,
2013-01-17 05:35:00,60.1,-40.8,30.03,NNE,22,5.8,-999.0,1,-99.99,,,0.00,Acu-Link.com,2013-01-17 13:35:00,
2013-01-17 05:50:00,59.7,-41.0,30.03,North,0,4.7,-999.0,1,-99.99,,,0.00,Acu-Link.com,2013-01-17 13:50:00,
2013-01-17 06:05:00,59.7,-41.0,30.03,NNE,22,4.7,-999.0,1,-99.99,,,0.00,Acu-Link.com,2013-01-17 14:05:00,
2013-01-17 06:21:00,59.0,-41.5,30.04,ESE,112,1.1,-999.0,1,-99.99,,,0.00,Acu-Link.com,2013-01-17 14:21:00,
2013-01-17 06:36:00,58.8,-41.6,30.05,NNE,22,2.2,-999.0,1,-99.99,,,0.00,Acu-Link.com,2013-01-17 14:36:00,
2013-01-17 06:51:00,58.1,-42.0,30.04,West,270,2.2,-999.0,1,-99.99,,,0.00,Acu-Link.com,2013-01-17 14:51:00,
2013-01-17 07:06:00,58.5,-41.8,30.05,South,180,2.2,-999.0,1,-99.99,,,0.00,Acu-Link.com,2013-01-17 15:06:00,
2013-01-17 07:21:00,59.0,-41.5,30.05,NW,315,3.7,-999.0,1,-99.99,,,0.00,Acu-Link.com,2013-01-17 15:21:00,
2013-01-17 07:36:00,58.8,-41.6,30.06,West,270,0.0,-999.0,1,-99.99,,,0.00,Acu-Link.com,2013-01-17 15:36:00,
2013-01-17 07:51:00,58.6,-41.7,30.06,NNW,337,1.1,-999.0,1,-99.99,,,0.00,Acu-Link.com,2013-01-17 15:51:00,
2013-01-17 08:06:00,60.6,-40.5,30.08,SSE,157,2.2,-999.0,1,-99.99,,,0.00,Acu-Link.com,2013-01-17 16:06:00,
2013-01-17 08:21:00,65.5,-37.5,30.07,NNE,22,2.2,-999.0,1,-99.99,,,0.00,Acu-Link.com,2013-01-17 16:21:00,
2013-01-17 08:37:00,67.5,-36.3,30.08,East,90,7.3,-999.0,1,-99.99,,,0.00,Acu-Link.com,2013-01-17 16:37:00,
2013-01-17 08:52:00,68.7,-35.6,30.08,East,90,6.3,-999.0,1,-99.99,,,0.00,Acu-Link.com,2013-01-17 16:52:00,
2013-01-17 09:07:00,70.0,-34.8,30.08,ENE,67,4.7,-999.0,1,-99.99,,,0.00,Acu-Link.com,2013-01-17 17:07:00,
2013-01-17 09:22:00,70.5,-34.5,30.09,NNW,337,7.3,-999.0,1,-99.99,,,0.00,Acu-Link.com,2013-01-17 17:22:00,
2013-01-17 09:37:00,72.0,-33.6,30.09,NNE,22,3.2,-999.0,1,-99.99,,,0.00,Acu-Link.com,2013-01-17 17:37:00,
2013-01-17 09:52:00,73.4,-32.8,30.09,NNE,22,7.3,-999.0,1,-99.99,,,0.00,Acu-Link.com,2013-01-17 17:52:00,
2013-01-17 10:07:00,73.8,-32.5,30.09,NNE,22,6.8,-999.0,1,-99.99,,,0.00,Acu-Link.com,2013-01-17 18:07:00,
2013-01-17 10:22:00,75.0,-31.8,30.08,NE,45,8.3,-999.0,1,-99.99,,,0.00,Acu-Link.com,2013-01-17 18:22:00,
2013-01-17 10:37:00,76.5,-30.9,30.08,West,270,7.3,-999.0,1,-99.99,,,0.00,Acu-Link.com,2013-01-17 18:37:00,
2013-01-17 10:53:00,76.1,-31.2,30.06,NNW,337,2.7,-999.0,1,-99.99,,,0.00,Acu-Link.com,2013-01-17 18:53:00,
2013-01-17 11:08:00,77.0,-30.6,30.05,North,0,6.3,-999.0,1,-99.99,,,0.01,Acu-Link.com,2013-01-17 19:08:00,
2013-01-17 11:23:00,77.7,-30.2,30.04,NE,45,4.7,-999.0,1,-99.99,,,0.01,Acu-Link.com,2013-01-17 19:23:00,
2013-01-17 11:38:00,77.7,-30.2,30.04,NNE,22,9.4,-999.0,1,-99.99,,,0.01,Acu-Link.com,2013-01-17 19:38:00,
2013-01-17 11:53:00,78.1,-30.0,30.03,ESE,112,5.8,-999.0,1,-99.99,,,0.01,Acu-Link.com,2013-01-17 19:53:00,
2013-01-17 12:08:00,79.0,-29.4,30.01,ESE,112,10.9,-999.0,1,-99.99,,,0.01,Acu-Link.com,2013-01-17 20:08:00,
2013-01-17 12:23:00,77.7,-30.2,30.00,ESE,112,8.3,-999.0,1,-99.99,,,0.01,Acu-Link.com,2013-01-17 20:23:00,
2013-01-17 12:38:00,77.9,-30.1,29.99,WNW,292,3.2,-999.0,1,-99.99,,,0.01,Acu-Link.com,2013-01-17 20:38:00,
2013-01-17 12:53:00,78.6,-29.7,30.00,NW,315,3.7,-999.0,1,-99.99,,,0.01,Acu-Link.com,2013-01-17 20:53:00,
2013-01-17 13:09:00,77.4,-30.4,29.98,NE,45,9.4,-999.0,1,-99.99,,,0.01,Acu-Link.com,2013-01-17 21:09:00,
2013-01-17 13:24:00,76.3,-31.0,29.98,North,0,9.4,-999.0,1,-99.99,,,0.01,Acu-Link.com,2013-01-17 21:24:00,
2013-01-17 13:39:00,73.9,-32.5,29.97,NE,45,6.8,-999.0,1,-99.99,,,0.01,Acu-Link.com,2013-01-17 21:39:00,
2013-01-17 13:54:00,75.2,-31.7,29.97,ENE,67,3.2,-999.0,1,-99.99,,,0.01,Acu-Link.com,2013-01-17 21:54:00,
2013-01-17 14:09:00,75.9,-31.3,29.97,North,0,3.2,-999.0,1,-99.99,,,0.01,Acu-Link.com,2013-01-17 22:09:00,
2013-01-17 14:24:00,77.4,-30.4,29.96,North,0,3.7,-999.0,1,-99.99,,,0.01,Acu-Link.com,2013-01-17 22:24:00,
2013-01-17 14:39:00,77.5,-30.3,29.96,SW,225,3.7,-999.0,1,-99.99,,,0.01,Acu-Link.com,2013-01-17 22:39:00,
2013-01-17 14:54:00,78.1,-30.0,29.96,NW,315,3.2,-999.0,1,-99.99,,,0.01,Acu-Link.com,2013-01-17 22:54:00,
2013-01-17 15:09:00,77.9,-30.1,29.96,ESE,112,1.7,-999.0,1,-99.99,,,0.01,Acu-Link.com,2013-01-17 23:09:00,
2013-01-17 15:25:00,76.8,-30.7,29.97,NE,45,3.2,-999.0,1,-99.99,,,0.01,Acu-Link.com,2013-01-17 23:25:00,
2013-01-17 15:40:00,76.1,-31.2,29.96,East,90,2.7,-999.0,1,-99.99,,,0.01,Acu-Link.com,2013-01-17 23:40:00,
2013-01-17 15:55:00,75.6,-31.5,29.97,East,90,3.7,-999.0,1,-99.99,,,0.01,Acu-Link.com,2013-01-17 23:55:00,
2013-01-17 16:10:00,74.7,-32.0,29.98,NNE,22,5.8,-999.0,1,-99.99,,,0.01,Acu-Link.com,2013-01-18 00:10:00,
2013-01-17 16:25:00,72.3,-33.4,29.98,ENE,67,5.8,-999.0,1,-99.99,,,0.01,Acu-Link.com,2013-01-18 00:25:00,
2013-01-17 16:40:00,70.2,-34.7,29.98,ESE,112,2.2,-999.0,1,-99.99,,,0.01,Acu-Link.com,2013-01-18 00:40:00,
2013-01-17 16:56:00,68.9,-35.5,29.98,ENE,67,6.3,-999.0,1,-99.99,,,0.01,Acu-Link.com,2013-01-18 00:56:00,
2013-01-17 17:11:00,67.3,-36.4,29.98,NNE,22,1.1,-999.0,1,-99.99,,,0.01,Acu-Link.com,2013-01-18 01:11:00,
2013-01-17 17:26:00,65.8,-37.3,29.99,NNW,337,1.7,-999.0,1,-99.99,,,0.01,Acu-Link.com,2013-01-18 01:26:00,
2013-01-17 17:41:00,64.9,-37.9,29.99,NW,315,1.7,-999.0,1,-99.99,,,0.01,Acu-Link.com,2013-01-18 01:41:00,
2013-01-17 17:56:00,63.5,-38.7,30.00,WNW,292,1.1,-999.0,1,-99.99,,,0.01,Acu-Link.com,2013-01-18 01:56:00,
2013-01-17 18:11:00,62.8,-39.2,30.00,ESE,112,0.0,-999.0,1,-99.99,,,0.01,Acu-Link.com,2013-01-18 02:11:00,
2013-01-17 18:26:00,63.1,-39.0,30.01,NE,45,1.1,-999.0,1,-99.99,,,0.01,Acu-Link.com,2013-01-18 02:26:00,
2013-01-17 18:41:00,63.7,-38.6,30.01,SSW,202,3.7,-999.0,1,-99.99,,,0.01,Acu-Link.com,2013-01-18 02:41:00,
2013-01-17 18:56:00,63.1,-39.0,30.01,SE,135,2.2,-999.0,1,-99.99,,,0.01,Acu-Link.com,2013-01-18 02:56:00,
2013-01-17 19:11:00,62.4,-39.4,30.01,ENE,67,2.2,-999.0,1,-99.99,,,0.01,Acu-Link.com,2013-01-18 03:11:00,
2013-01-17 19:27:00,62.8,-39.2,30.02,ENE,67,1.7,-999.0,1,-99.99,,,0.01,Acu-Link.com,2013-01-18 03:27:00,
2013-01-17 19:42:00,61.9,-39.7,30.02,NNE,22,2.2,-999.0,1,-99.99,,,0.01,Acu-Link.com,2013-01-18 03:42:00,
2013-01-17 19:57:00,60.1,-40.8,30.03,SE,135,0.0,-999.0,1,-99.99,,,0.01,Acu-Link.com,2013-01-18 03:57:00,
2013-01-17 20:12:00,59.5,-41.2,30.02,NNW,337,1.1,-999.0,1,-99.99,,,0.01,Acu-Link.com,2013-01-18 04:12:00,
2013-01-17 20:27:00,59.7,-41.0,30.02,NE,45,5.3,-999.0,1,-99.99,,,0.01,Acu-Link.com,2013-01-18 04:27:00,
2013-01-17 20:42:00,59.2,-41.3,30.03,East,90,0.0,-999.0,1,-99.99,,,0.01,Acu-Link.com,2013-01-18 04:42:00,
2013-01-17 20:58:00,57.6,-42.3,30.02,SSE,157,0.0,-999.0,1,-99.99,,,0.01,Acu-Link.com,2013-01-18 04:58:00,
2013-01-17 21:13:00,56.5,-43.0,30.02,East,90,1.1,-999.0,1,-99.99,,,0.01,Acu-Link.com,2013-01-18 05:13:00,
2013-01-17 21:28:00,56.3,-43.1,30.03,ESE,112,0.0,-999.0,1,-99.99,,,0.01,Acu-Link.com,2013-01-18 05:28:00,
2013-01-17 21:43:00,55.9,-43.3,30.03,SSW,202,0.0,-999.0,1,-99.99,,,0.01,Acu-Link.com,2013-01-18 05:43:00,
2013-01-17 21:58:00,55.8,-43.4,30.02,East,90,1.7,-999.0,1,-99.99,,,0.01,Acu-Link.com,2013-01-18 05:58:00,
2013-01-17 22:13:00,56.3,-43.1,30.02,ESE,112,2.2,-999.0,1,-99.99,,,0.01,Acu-Link.com,2013-01-18 06:13:00,
2013-01-17 22:28:00,56.5,-43.0,30.02,ENE,67,0.0,-999.0,1,-99.99,,,0.01,Acu-Link.com,2013-01-18 06:28:00,
2013-01-17 22:43:00,55.8,-43.4,30.02,East,90,1.7,-999.0,1,-99.99,,,0.01,Acu-Link.com,2013-01-18 06:43:00,
2013-01-17 22:58:00,55.2,-43.8,30.02,ESE,112,1.7,-999.0,1,-99.99,,,0.01,Acu-Link.com,2013-01-18 06:58:00,
2013-01-17 23:14:00,53.6,-44.7,30.03,ESE,112,0.0,-999.0,1,-99.99,,,0.01,Acu-Link.com,2013-01-18 07:14:00,
2013-01-17 23:29:00,54.0,-44.5,30.03,NE,45,0.0,-999.0,1,-99.99,,,0.01,Acu-Link.com,2013-01-18 07:29:00,
2013-01-17 23:44:00,52.9,-45.2,30.03,ESE,112,0.0,-999.0,1,-99.99,,,0.01,Acu-Link.com,2013-01-18 07:44:00,
2013-01-17 23:59:00,52.3,-45.5,30.04,ESE,112,0.0,-999.0,1,-99.99,,,0.01,Acu-Link.com,2013-01-18 07:59:00,